Home   Weather   San Juan   Past weeks
Flag for Puerto Rico

Past Weather in San Juan, Puerto Rico — Yesterday and Last 2 Weeks

Now
75 °F

Passing clouds.


Feels Like: 75 °F
Forecast: 86 / 73 °F
Wind: No wind

Location: Luis Munoz Marin

Current Time: Mar 21, 2019 at 8:02:04 am

Latest Report: Mar 21, 2019 at 6:56 am


Visibility: 10 mi

Pressure: 29.99 "Hg

Humidity: 85%

Dew Point: 70 °F

Location of San JuanLocation

Past Weather in San Juan — Graph

°F

San Juan Temperature Yesterday

Maximum temperature yesterday: 85 °F (at 12:56 pm)
Minimum temperature yesterday: 74 °F (at 4:56 am)
Average temperature yesterday: 79 °F

High & Low Weather Summary for the Past Weeks

 TemperatureHumidityPressure
High86 °F (Mar 17, 1:56 pm)91% (Mar 13, 10:56 pm)30.11 "Hg (Mar 13, 10:56 pm)
Low70 °F (Mar 19, 5:56 am)48% (Mar 19, 11:56 am)29.94 "Hg (Mar 20, 4:56 pm)
Average78 °F73%30.03 "Hg
* Reported Mar 6 6:56 am — Mar 21 6:56 am, San Juan. Weather by CustomWeather, © 2019

Note: Actual official high and low records may vary slightly from our data, if they occured in-between our weather recording intervals... More about our weather records

Advertising

San Juan Weather History for the Previous 24 Hours

Scroll right to see more
 ConditionsComfort  
Time TempWeatherWind HumidityBarometerVisibility
6:56 am
Thu, Mar 21
75 °FPassing clouds.No wind85%29.99 "Hg10 mi
5:56 am76 °FPassing clouds.No wind82%29.97 "Hg10 mi
4:56 am75 °FPassing clouds.5 mph85%29.96 "Hg10 mi
3:56 am75 °FPassing clouds.No wind85%29.94 "Hg10 mi
2:56 am76 °FPassing clouds.No wind82%29.95 "Hg10 mi
1:56 am77 °FPassing clouds.No wind77%29.96 "Hg10 mi
12:56 am76 °FPassing clouds.3 mph80%29.99 "Hg10 mi
11:56 pm
Wed, Mar 20
75 °FPassing clouds.6 mph85%30.00 "Hg10 mi
10:56 pm79 °FPassing clouds.No wind74%30.01 "Hg10 mi
9:56 pm77 °FPassing clouds.5 mph77%30.01 "Hg10 mi
8:56 pm77 °FPassing clouds.6 mph77%30.00 "Hg10 mi
7:56 pm78 °FPassing clouds.8 mph74%29.98 "Hg10 mi
6:56 pm78 °FBroken clouds.13 mph74%29.97 "Hg10 mi
5:56 pm80 °FBroken clouds.14 mph71%29.95 "Hg10 mi
4:56 pm83 °FPartly sunny.13 mph63%29.94 "Hg10 mi
3:56 pm83 °FBroken clouds.17 mph65%29.94 "Hg10 mi
2:56 pm82 °FBroken clouds.18 mph70%29.95 "Hg10 mi
1:56 pm83 °FScattered clouds.20 mph68%29.96 "Hg10 mi
12:56 pm85 °FScattered clouds.17 mph63%29.99 "Hg10 mi
11:56 am84 °FScattered clouds.16 mph65%30.02 "Hg10 mi
10:56 am83 °FScattered clouds.9 mph63%30.03 "Hg10 mi
9:56 am81 °FScattered clouds.8 mph72%30.03 "Hg10 mi
8:56 am80 °FScattered clouds.7 mph71%30.03 "Hg10 mi
Weather by CustomWeather, © 2019

See weather overview